057  
ASUS44 KOHX 231310  
RWROHX  
MIDDLE TENNESSEE HOURLY WEATHER ROUNDUP  
NATIONAL WEATHER SERVICE NASHVILLE TN  
800 AM CDT MON SEP 23 2019  
 
NOTE: "FAIR" INDICATES FEW OR NO CLOUDS BELOW 12,000 FEET WITH  
NO SIGNIFICANT WEATHER AND/OR S TO VISIBILITY
.  
 
* THESE REPORTS ARE NOT UNDER NWS QUALITY CONTROL AND MAY NOT  
REPORT WEATHER SUCH AS PRECIPITATION AND FOG.
 
 
 
TNZ005>011-023>034-057-059-062>066-078-080-231400   
..NORTHERN MIDDLE TENNESSEE
 
 
 
CITY SKY/WX TMP DP RH WIND PRES REMARKS
 
CLARKSVILLE CLOUDY 74 62 66 SW5 30.04R  
CROSSVILLE N/A 66 55 67 VRB3 30.15S  
DICKSON CLOUDY 72 59 64 SW8 30.06S  
LEBANON CLOUDY 72 59 64 S5 30.05S  
LIVINGSTON CLOUDY 70 57 64 SW7 30.10R  
NASHVILLE CLOUDY 75 58 55 S6 30.07S  
PORTLAND CLOUDY 73 61 64 S7 30.06S  
ROCKWOOD CLOUDY 66 57 72 CALM 30.13S  
SMYRNA CLOUDY 70 61 73 SE5 30.08S  
SPARTA CLOUDY 66 61 82 CALM 30.10S  
WEST NASHVILLE CLOUDY 73 59 60 CALM 30.05R  

 
TNZ056-058-060-061-075>077-079-093>097-231400   
..SOUTHERN MIDDLE TENNESSEE
 
 
 
CITY SKY/WX TMP DP RH WIND PRES REMARKS
 
COLUMBIA CLOUDY 73 61 64 SW8 30.06S  
FAYETTEVILLE CLOUDY 70 59 68 S3 30.11R  
LAWRENCEBURG CLOUDY 68 61 77 CALM 30.10R  
LEWISBURG CLOUDY 73 59 60 SW5 30.08S  
MCMINNVILLE CLOUDY 64 61 88 CALM 30.11R  
MURFREESBORO CLOUDY 72 59 64 S5 30.07R  
PULASKI CLOUDY 63 61 94 CALM 30.10R  
SHELBYVILLE CLOUDY 68 61 77 CALM 30.09S  
TULLAHOMA CLOUDY 66 61 82 CALM 30.11R  
WINCHESTER CLOUDY 70 59 68 CALM 30.11S  

 
 
   
..KEY TO REMARKS
 
 
VSB - VISIBILITY IN MILES  
WCI - WIND CHILL INDEX  
HX - HEAT INDEX  
 
 
 
CLICK HERE TO GO TO PREVIOUS BULLETINS.

The Nexlab TN Page Main Text Page